Dewpoint
10 10 10 9 9 9 9 8 8 8 8 7 7 6 5 4 3 3 4 -5 -6 -6 -8 -9 -12 -13 -13 -12 -11 -9 -6 -6 -8 -6 -8 -8 -8 -8 -8 -6 -4 -4 5 8 10
9 9 9 9 8 8 8 7 7 7 6 6 7 6 5 4 2 3 3 1 -4 1 2 -6 -6 -6 -7 -10 -11 -10 -7 -7 -9 -7 -7 -8 -9 -9 -9 -8 -5 5 10 9 11
10 9 8 8 8 7 7 7 6 5 4 4 4 6 5 4 4 -2 -2 -3 -4 0 2 -6 -6 -5 -5 -6 -9 -10 -8 -10 -10 -9 -9 -9 -11 -10 -10 -8 -7 2 9 10 10
9 8 8 8 7 7 7 6 5 5 3 -0 -2 -4 -2 1 4 1 3 3 3 2 1 -5 -4 -4 -3 -3 -5 -5 -9 -9 -9 -10 -11 -11 -11 -12 -10 -10 -9 1 7 8 8
9 8 8 7 4 5 6 4 4 1 -3 -4 -6 -12 -12 2 3 3 3 3 2 -4 -6 -5 -4 -3 -2 -4 -5 -5 -7 -8 -7 -10 -11 -11 -11 -11 -12 -11 -7 3 5 6 6
7 7 7 3 1 -2 1 -0 -1 -3 -5 -9 -12 -12 0 -1 -3 3 4 2 2 1 -3 -4 -3 -4 -6 -5 -3 -5 -6 -7 -9 -9 -10 -10 -10 -11 -12 -11 -8 0 2 3 3
4 0 -5 -5 -5 -6 -7 -8 -9 -9 -11 -11 -11 -9 2 -3 -11 -5 -3 -2 0 2 1 -1 -1 -6 -5 -2 -4 -6 -6 -7 -6 -7 -7 -9 -9 -10 -11 -11 -9 -2 -1 -1 -1
-5 -6 -8 -8 -8 -9 -10 -10 -10 -11 -11 -11 -11 -8 0 -9 -8 -8 -7 -3 -1 -1 2 1 -1 -5 -5 -2 -2 -2 -3 -1 -5 -6 -7 -9 -6 -10 -11 -10 -10 -4 -3 -3 -2
-7 -8 -8 -8 -9 -9 -10 -11 -13 -15 -15 -13 -13 2 2 -4 -4 -5 0 -1 -0 -2 -1 0 -5 -5 -3 -0 -0 -3 1 -1 -3 -8 -7 -8 -8 -11 -10 -10 -9 -5 -4 -4 -3
-9 -10 -10 -12 -12 -13 -15 -19 -20 -21 -12 -3 2 -0 -4 -6 -10 -4 -0 -1 0 1 2 1 -4 -2 -1 -0 3 0 -2 -3 -3 -7 -8 -8 -8 -10 -11 -10 -9 -6 -5 -5 -3
-10 -13 -15 -16 -19 -21 -24 -19 -3 6 4 -1 -2 -2 -7 -5 -3 -4 -3 -3 -2 -4 -1 1 -0 -2 -3 -2 -2 -3 -2 -2 -5 -7 -7 -7 -7 -9 -10 -9 -8 -9 -6 -5 -4
-7 -11 -15 -19 -21 -23 -25 -4 1 3 0 -4 0 -1 -4 -7 -8 -9 -6 -5 -6 -4 -6 -4 1 -2 -5 -6 -4 -2 -2 -3 -4 -5 -6 -7 -6 -8 -8 -7 -8 -8 -8 -6 -4
-2 -7 -11 -17 -22 -24 -7 -2 3 2 -2 -9 -11 -12 -13 -12 -11 -12 -11 -10 -5 -6 -7 -5 -6 -6 -4 -5 -6 -3 -1 -2 -2 -3 -4 -4 -3 -4 -8 -9 -8 -8 -8 -7 -4
0 -1 -4 -13 -14 -0 -2 2 1 2 -0 -10 -12 -9 -10 -11 -8 -9 -10 -11 -10 -4 -4 -7 -8 -7 -5 -5 -5 -2 -5 -4 -3 -2 -0 -3 1 -3 -6 -7 -8 -8 -8 -7 -5
0 1 -0 -6 2 0 4 -0 4 5 -1 -12 -7 -3 -1 -6 -5 -4 -3 -7 -7 -9 -7 -3 -5 -7 -6 -6 -7 -4 -6 -6 -6 -4 -2 -2 -3 -6 -7 -6 -8 -7 -7 -7 -6
0 1 -0 -0 1 -4 2 -8 3 4 1 -13 -9 -5 -5 -3 -4 -2 1 -3 -4 -6 -8 -7 -5 -4 -6 -8 -7 -7 -7 -6 -4 -2 1 -2 -3 -4 -7 -8 -8 -7 -8 -7 -3
1 0 -1 -3 2 2 -4 4 5 3 -15 -14 -14 -10 -4 -3 -1 -2 -2 0 0 -1 -2 -5 -5 -5 -6 -5 -6 -6 -2 1 0 1 0 -6 -5 -5 -8 -8 -8 -7 -7 -6 -5
1 0 -1 -1 -2 1 1 4 4 -10 -11 -14 -11 -9 -7 -4 -6 -5 -2 -1 -0 -1 -1 -0 0 -6 -9 -6 -4 -5 -4 1 0 -0 -2 -7 -4 -6 -7 -7 -6 -8 -6 -4 -1
2 1 1 1 -1 1 1 3 -3 -7 -12 -14 -15 -14 -11 -11 -11 -9 -1 0 -3 4 6 2 -3 -7 -5 -4 -6 -4 -3 -5 -0 -1 1 -3 -5 -6 -7 -6 -6 -7 -6 -2 -0
1 1 1 2 1 2 2 0 -6 -11 -13 -12 -9 -10 -11 -13 -10 -10 -9 -10 -9 -1 1 4 6 -3 -3 -1 -3 -4 -5 3 6 8 6 1 -1 -3 -1 -2 -5 -5 -2 -1 0
2 1 1 1 1 2 3 -2 -6 -9 -11 -10 -6 -6 -8 -10 -11 -10 -10 -10 -8 -1 -2 -0 4 1 -2 3 2 -0 1 4 5 7 8 5 1 -2 -2 -0 -0 -3 -1 -0 0
1 1 0 1 2 2 3 -3 -7 -8 -9 -9 -8 -3 -2 -5 -5 -5 -7 -5 -3 -5 -3 -2 1 5 -1 -1 -4 -4 1 1 5 3 3 2 1 -5 -2 -2 -1 -3 -2 -0 -0
1 -0 1 1 2 2 -3 -4 -4 -5 -7 -7 -6 -7 -3 -6 -4 -6 -7 -3 -4 -4 -0 -3 -1 -0 -4 -6 -8 -5 -1 0 4 5 6 7 4 -4 -2 -3 -0 -0 -1 -1 0
-0 0 -0 1 1 -1 -1 -3 -4 -7 -7 -9 -9 -7 -9 -6 -3 -4 -7 -1 -2 -5 -6 -6 -6 -4 -1 -4 -5 -0 -3 -5 -1 5 6 4 1 -2 -2 -2 0 -2 -1 1 0
-0 -0 -0 1 1 0 -3 -4 -4 -5 -8 -8 -8 -6 -4 -5 -5 -7 -8 -8 -3 -6 -7 -8 -4 -7 -10 -11 -12 -11 -10 -10 -4 1 4 2 1 -3 -4 -6 -8 -7 -2 0 0
-1 -0 0 -1 -3 0 -0 -2 -3 -4 -5 -5 -5 -6 -7 -6 -8 -7 -4 -5 -3 -6 -6 -7 -4 -7 -7 -10 -11 -11 -11 -11 -11 -11 -11 -10 -10 -13 -13 -12 -12 -11 -7 -1 -0
-2 -1 -0 -0 -1 -0 -0 -1 0 -2 -6 -6 -5 -0 -0 -3 -1 -1 -2 -3 -4 -4 -3 -5 -0 -3 -1 -6 -7 -2 -5 -7 -5 -7 -9 -5 -7 -8 -7 -8 -9 -7 -3 -0 1
Wind_Speed
15 15 15 16 18 20 19 20 21 21 21 22 23 23 23 25 23 15 16 8 14 11 10 18 16 13 13 15 14 12 10 12 18 14 6 10 2 5 4 8 7 7 8 19 23
17 17 18 20 21 22 22 22 22 22 23 23 24 24 22 23 24 22 16 15 14 12 13 15 16 15 15 19 11 10 11 19 11 9 13 11 1 8 3 9 10 13 18 20 26
18 19 21 20 21 22 23 22 23 24 25 24 25 24 23 20 21 2 4 9 12 15 17 14 16 18 20 19 16 17 14 16 16 13 12 13 8 14 13 13 17 20 20 20 23
22 22 22 20 22 23 24 24 23 24 24 24 25 26 24 16 6 4 16 19 21 21 15 14 15 17 17 17 20 16 14 21 15 16 8 12 16 14 11 10 14 28 24 23 22
21 23 25 28 28 25 25 26 24 24 26 25 24 23 25 10 21 20 18 17 13 10 11 12 13 16 16 18 21 15 13 22 23 11 14 14 16 14 10 6 7 23 25 23 22
25 28 29 29 27 25 25 26 26 24 23 22 22 22 15 22 10 9 13 11 12 13 14 14 14 16 13 18 17 20 22 18 20 20 19 16 16 16 16 10 13 20 22 22 22
27 26 25 25 24 24 24 24 24 24 22 21 21 20 18 34 18 18 19 21 19 16 17 14 14 10 16 17 11 15 14 18 20 20 21 20 18 18 23 13 16 19 20 21 21
24 25 24 24 25 25 25 25 25 24 24 21 20 15 15 18 16 19 21 21 20 20 16 14 14 14 18 21 21 17 18 18 18 20 25 18 18 17 23 24 21 21 20 21 21
23 23 23 22 23 24 23 22 21 22 21 17 17 9 16 10 11 12 11 14 14 16 18 15 10 17 17 15 14 17 16 19 18 18 10 15 17 14 19 26 24 22 21 22 23
21 21 21 19 19 19 20 18 18 20 15 13 14 10 25 19 14 6 9 10 9 7 12 16 11 12 14 13 15 18 19 13 13 10 6 12 16 14 18 12 18 25 24 23 23
19 19 18 17 16 15 16 12 13 6 7 14 9 13 15 11 10 8 11 14 15 16 15 21 13 16 20 20 21 16 19 18 16 14 16 10 13 16 20 22 22 23 28 27 27
13 14 15 15 13 12 9 5 5 7 13 19 29 32 31 27 30 24 17 15 17 18 18 17 21 20 20 21 19 15 18 17 17 17 15 15 16 15 14 18 25 25 23 30 28
12 10 10 10 9 8 5 9 9 9 10 20 30 33 29 27 33 29 25 25 22 22 20 22 22 22 22 20 22 17 18 17 18 17 18 15 19 20 19 25 28 31 30 26 32
11 9 7 4 3 3 6 4 5 4 6 12 16 11 17 20 24 24 28 30 26 26 22 23 21 23 19 15 15 19 17 18 19 16 13 16 16 16 16 16 20 25 25 23 29
12 10 7 3 4 2 3 7 3 2 6 3 8 4 3 14 6 7 8 20 27 24 20 26 22 21 23 22 19 20 18 18 18 14 16 20 12 14 18 20 18 17 25 21 16
14 11 9 2 8 7 8 5 3 3 9 5 5 7 10 14 16 6 3 6 6 17 21 22 23 16 14 10 13 15 15 18 15 11 14 19 15 21 14 19 13 16 15 16 24
14 13 12 9 5 5 5 2 3 8 5 10 12 12 12 12 14 14 11 7 7 6 13 19 24 23 21 16 13 11 11 7 8 12 15 14 14 19 14 3 4 14 19 19 20
18 16 16 15 11 9 3 3 10 12 25 9 6 3 11 4 7 11 14 13 16 15 10 10 14 21 21 25 17 18 13 8 10 9 13 16 17 14 7 10 11 12 24 25 30
19 19 20 16 13 10 9 9 11 16 19 18 18 22 20 18 14 12 7 11 13 8 6 9 21 9 7 6 21 20 17 15 14 16 12 13 18 17 6 9 5 4 14 25 25
21 16 22 14 17 16 8 18 18 21 22 19 19 18 21 19 18 16 19 19 12 4 4 4 9 19 6 4 11 20 13 10 5 5 11 13 15 10 10 13 3 5 11 20 24
19 9 14 21 17 12 8 17 22 35 29 22 18 19 22 21 17 18 18 18 7 3 2 3 6 13 9 6 13 5 8 7 7 4 2 3 6 11 10 10 5 7 14 16 21
21 7 19 25 15 6 7 18 28 27 31 22 22 14 20 17 18 18 19 11 8 11 9 5 4 9 16 16 16 12 9 15 8 11 8 9 14 10 10 9 8 13 13 18 20
12 8 17 27 9 12 18 22 29 23 24 24 23 15 19 20 17 20 18 11 5 5 4 8 5 9 12 11 12 11 9 12 10 9 13 10 10 7 9 4 15 11 5 11 19
11 3 11 18 13 18 18 21 23 31 27 32 24 21 19 11 18 21 18 7 8 10 5 3 8 10 10 13 15 6 11 13 5 4 10 14 20 17 12 9 11 11 17 17 18
15 7 8 3 11 19 20 16 21 26 27 27 22 18 20 16 16 20 16 14 18 15 10 6 11 15 18 21 23 24 21 21 15 14 9 15 18 17 17 16 17 12 24 29 27
6 4 8 22 30 23 20 21 23 19 19 18 15 17 16 19 17 18 15 13 9 10 15 13 12 15 17 19 20 22 23 23 20 20 18 20 23 18 23 18 18 19 18 27 27
20 27 12 11 22 17 19 27 19 23 20 16 15 1 10 11 11 10 10 13 10 11 10 10 3 9 15 18 19 15 21 20 16 18 16 16 21 18 18 16 17 19 10 24 29
Wind_Direction
309 312 313 311 314 316 315 316 318 320 320 320 321 321 326 323 318 312 293 271 304 316 332 340 322 283 295 272 261 267 268 268 262 336 280 106 150 111 5 121 86 65 30 154 169
299 300 301 304 308 314 314 312 313 313 316 319 320 321 325 329 322 306 270 267 285 309 329 330 319 314 300 285 256 251 270 270 348 333 328 6 324 186 206 163 107 100 109 146 152
287 292 293 296 300 306 310 310 311 311 311 316 316 314 317 330 321 334 351 293 283 300 316 305 301 297 290 283 270 270 258 285 318 332 330 313 279 285 175 245 173 164 150 154 156
282 286 288 290 295 302 305 305 309 309 312 314 317 318 314 318 281 322 310 298 294 295 299 299 293 291 290 285 283 261 263 274 291 299 308 293 292 257 228 235 330 161 159 164 168
279 283 289 293 294 293 294 298 301 304 308 311 315 321 327 304 269 281 290 298 299 303 282 284 290 288 287 290 290 289 281 276 283 258 267 269 267 270 262 196 113 146 159 171 174
278 282 289 292 293 294 292 295 297 298 302 308 312 317 322 287 294 272 280 277 277 277 275 276 278 298 301 274 282 288 293 293 286 286 265 252 257 262 252 164 153 156 169 177 178
279 282 285 287 288 291 292 292 295 298 299 301 304 310 291 262 283 270 264 270 271 263 267 270 288 271 289 300 283 299 288 276 266 259 255 257 251 243 246 197 177 177 182 185 185
278 281 282 284 287 287 288 290 292 293 293 295 297 301 267 276 264 263 267 262 260 256 252 263 272 264 270 276 282 275 268 270 270 257 241 224 252 248 236 228 192 183 192 193 190
278 279 280 282 285 287 289 293 294 291 293 293 287 258 274 285 253 262 249 259 261 251 247 249 254 253 266 257 264 253 253 260 272 289 226 210 243 249 293 255 187 185 199 201 183
277 278 280 281 283 287 292 296 298 295 285 283 264 282 254 265 269 257 250 252 249 241 223 227 241 240 242 239 248 266 262 284 253 271 194 255 272 242 261 199 194 195 201 201 193
276 274 275 278 281 284 291 307 287 264 223 220 219 232 282 273 288 272 264 251 245 251 234 219 231 238 238 236 241 260 277 283 287 297 298 264 258 269 267 193 209 217 193 198 196
281 279 278 277 281 282 287 265 340 305 292 259 260 263 259 266 277 265 266 242 235 239 236 243 233 238 255 267 271 257 263 266 270 274 265 281 270 251 264 264 212 213 222 200 195
293 284 285 289 284 280 267 281 294 313 264 268 252 253 255 251 256 254 246 249 242 256 238 248 245 242 245 248 261 248 256 265 270 281 287 286 264 260 255 257 262 213 207 213 193
290 292 298 303 328 306 272 249 306 312 277 273 233 242 245 241 269 257 245 244 249 246 252 254 257 262 244 242 259 261 245 257 267 266 265 269 281 278 288 266 231 235 194 214 197
274 280 292 257 257 333 310 283 298 319 288 353 97 130 152 192 360 181 246 236 242 250 238 252 255 260 263 253 249 258 270 282 281 286 292 263 271 271 258 252 248 200 184 197 207
256 264 282 315 326 264 297 249 115 217 244 249 158 199 210 218 236 261 287 239 299 250 260 267 274 284 293 262 295 313 276 270 273 256 255 258 257 273 268 270 292 170 163 177 146
242 247 256 263 232 307 267 181 195 228 255 257 207 213 221 225 216 223 216 204 211 192 232 256 256 260 263 256 265 268 267 241 241 227 249 255 247 256 264 284 13 149 165 168 169
240 245 257 266 241 275 223 230 223 235 232 247 310 260 246 232 299 280 215 228 203 225 263 253 240 220 224 236 229 231 231 229 245 251 267 278 264 271 59 100 115 126 159 159 138
234 245 255 241 209 228 224 217 224 236 259 270 276 271 252 251 268 275 272 302 317 25 285 302 249 243 207 259 221 237 242 234 256 275 280 267 277 295 260 128 81 48 145 143 141
234 240 242 236 215 203 215 232 238 246 262 278 281 279 272 268 263 247 257 268 270 168 105 272 288 274 193 24 259 233 247 255 115 230 246 249 256 260 36 83 126 102 105 130 137
235 239 246 217 206 206 212 221 240 253 266 271 288 280 272 281 272 281 279 282 320 160 227 334 289 263 239 201 236 261 265 180 207 177 229 288 268 109 82 83 333 119 127 143 153
235 221 230 203 203 207 222 226 248 259 270 271 262 247 276 279 290 294 281 284 14 341 291 144 278 266 246 202 267 293 200 283 277 236 237 248 252 302 77 95 182 135 160 167 167
230 254 220 202 214 214 232 243 249 257 256 261 260 237 250 267 270 274 275 83 220 245 304 354 255 272 261 258 253 267 325 347 324 305 244 251 263 294 77 345 42 38 232 192 170
232 238 218 210 217 222 226 240 249 244 245 256 264 288 259 250 278 275 268 141 255 247 166 40 282 271 276 290 308 296 309 295 271 289 303 250 264 271 319 279 117 253 227 193 187
221 208 200 220 215 219 224 240 246 249 251 251 245 240 273 242 269 267 275 259 188 230 214 230 254 266 273 276 279 285 280 273 257 238 223 283 290 284 285 282 299 266 199 189 179
243 211 197 237 227 215 227 237 247 251 233 236 247 258 270 266 255 269 333 276 301 249 231 225 252 270 274 269 270 272 275 269 271 280 276 280 280 285 288 303 309 297 300 180 174
250 251 256 278 231 203 211 216 224 232 244 220 237 299 282 292 332 318 310 273 247 284 303 274 242 260 258 269 268 269 255 275 275 267 261 261 265 277 280 285 280 286 307 175 193
Height
1545 1543 1542 1540 1540 1538 1536 1535 1533 1532 1529 1527 1525 1523 1520 1517 1514 1512 1511 1509 1508 1507 1505 1502 1501 1500 1498 1496 1493 1492 1492 1488 1474 1468 1458 1462 1465 1469 1473 1475 1478 1483 1485 1488 1496
1543 1542 1540 1539 1538 1537 1535 1533 1531 1530 1528 1526 1523 1522 1519 1516 1512 1508 1507 1506 1506 1506 1504 1503 1502 1500 1497 1491 1489 1487 1486 1476 1467 1468 1465 1466 1468 1469 1476 1477 1484 1487 1489 1492 1496
1541 1540 1539 1537 1535 1533 1533 1531 1529 1528 1525 1524 1522 1519 1518 1515 1510 1505 1505 1505 1505 1504 1503 1503 1502 1500 1495 1489 1484 1482 1482 1473 1469 1471 1471 1469 1470 1470 1472 1476 1475 1484 1491 1496 1498
1538 1537 1536 1534 1533 1530 1531 1529 1527 1526 1523 1521 1520 1518 1515 1516 1511 1504 1504 1504 1503 1502 1501 1501 1500 1496 1491 1486 1480 1477 1477 1476 1472 1473 1475 1474 1471 1470 1469 1473 1474 1477 1487 1495 1498
1534 1535 1534 1532 1530 1528 1527 1526 1524 1523 1521 1518 1517 1516 1513 1512 1506 1504 1500 1501 1501 1501 1501 1500 1498 1495 1489 1485 1479 1475 1475 1475 1472 1472 1476 1476 1473 1470 1469 1472 1479 1481 1486 1492 1496
1531 1530 1530 1530 1528 1525 1523 1522 1522 1520 1518 1516 1515 1514 1515 1510 1502 1503 1501 1499 1500 1500 1498 1498 1496 1494 1492 1487 1483 1479 1475 1474 1473 1471 1472 1473 1472 1472 1472 1473 1478 1482 1487 1490 1493
1526 1525 1525 1525 1523 1522 1519 1518 1517 1517 1515 1514 1512 1511 1511 1496 1497 1498 1496 1496 1496 1496 1496 1495 1494 1494 1492 1486 1481 1479 1479 1473 1469 1468 1467 1469 1469 1468 1470 1471 1476 1480 1484 1488 1491
1521 1522 1520 1521 1520 1518 1516 1515 1514 1513 1511 1510 1509 1508 1501 1493 1492 1492 1493 1492 1491 1492 1491 1492 1492 1493 1491 1488 1482 1479 1476 1475 1461 1457 1457 1463 1469 1461 1464 1465 1470 1476 1481 1486 1490
1517 1517 1516 1515 1516 1515 1513 1511 1510 1509 1508 1508 1505 1507 1494 1489 1487 1485 1487 1488 1486 1486 1488 1489 1490 1490 1487 1483 1483 1472 1473 1463 1456 1446 1449 1455 1462 1457 1461 1458 1462 1471 1478 1482 1485
1514 1513 1514 1512 1512 1512 1511 1508 1507 1505 1503 1504 1504 1508 1489 1484 1485 1484 1485 1485 1485 1483 1484 1487 1487 1484 1479 1480 1483 1470 1457 1449 1451 1449 1450 1456 1456 1455 1458 1461 1463 1467 1472 1478 1482
1509 1510 1510 1510 1509 1508 1508 1507 1507 1504 1499 1494 1493 1488 1482 1483 1482 1482 1483 1483 1482 1481 1478 1478 1482 1480 1467 1463 1459 1459 1458 1457 1451 1446 1448 1451 1455 1454 1451 1454 1459 1461 1463 1469 1475
1506 1506 1506 1507 1507 1508 1507 1507 1505 1506 1497 1492 1485 1482 1481 1482 1479 1479 1481 1481 1479 1475 1471 1474 1467 1465 1461 1456 1453 1454 1457 1458 1453 1449 1450 1449 1450 1450 1449 1446 1449 1455 1457 1461 1469
1506 1504 1503 1505 1504 1506 1506 1508 1504 1503 1496 1481 1476 1471 1474 1477 1471 1473 1476 1473 1472 1471 1466 1462 1457 1454 1456 1456 1456 1452 1458 1457 1454 1447 1443 1447 1449 1448 1443 1440 1438 1441 1448 1452 1459
1503 1505 1503 1504 1506 1506 1507 1504 1504 1504 1493 1469 1461 1463 1467 1469 1465 1467 1467 1470 1466 1463 1464 1454 1452 1450 1448 1453 1455 1455 1450 1451 1451 1452 1459 1445 1448 1435 1431 1429 1428 1431 1440 1447 1452
1502 1503 1505 1502 1503 1505 1505 1503 1502 1505 1500 1456 1459 1464 1463 1465 1462 1461 1463 1461 1458 1457 1463 1448 1453 1451 1448 1448 1450 1451 1449 1448 1448 1453 1453 1447 1455 1433 1428 1425 1420 1417 1431 1440 1448
1501 1502 1503 1503 1503 1503 1502 1503 1504 1506 1489 1459 1456 1460 1463 1461 1461 1460 1463 1461 1459 1458 1457 1448 1450 1450 1448 1445 1450 1448 1449 1449 1447 1453 1464 1445 1451 1422 1430 1419 1412 1413 1426 1439 1449
1499 1499 1501 1502 1502 1502 1501 1506 1504 1496 1465 1452 1451 1452 1455 1451 1455 1456 1456 1460 1459 1464 1462 1455 1449 1447 1449 1450 1452 1454 1459 1467 1464 1462 1452 1435 1436 1420 1415 1412 1411 1414 1428 1437 1446
1495 1496 1498 1497 1499 1504 1503 1505 1499 1465 1473 1443 1452 1453 1454 1454 1448 1450 1448 1451 1448 1450 1449 1451 1448 1439 1438 1441 1450 1450 1455 1464 1465 1458 1444 1426 1430 1418 1411 1416 1420 1420 1425 1435 1443
1491 1491 1493 1492 1495 1501 1503 1500 1479 1465 1464 1455 1453 1454 1452 1448 1450 1451 1455 1456 1447 1454 1465 1448 1438 1427 1432 1436 1439 1446 1450 1445 1455 1449 1458 1440 1424 1414 1414 1422 1428 1427 1427 1436 1446
1485 1487 1486 1489 1490 1495 1499 1487 1472 1464 1461 1457 1459 1457 1454 1449 1449 1449 1449 1445 1445 1455 1461 1461 1464 1433 1433 1439 1438 1438 1441 1453 1467 1470 1460 1438 1429 1423 1426 1428 1434 1434 1436 1443 1451
1482 1482 1478 1483 1487 1489 1483 1477 1468 1467 1464 1461 1461 1461 1454 1450 1446 1447 1450 1447 1445 1451 1458 1460 1463 1442 1435 1445 1444 1445 1445 1454 1458 1466 1467 1458 1433 1422 1427 1431 1437 1438 1442 1447 1452
1476 1475 1471 1476 1482 1479 1475 1470 1469 1465 1466 1460 1460 1465 1463 1457 1455 1454 1452 1451 1458 1461 1456 1456 1459 1459 1437 1439 1436 1438 1449 1450 1458 1455 1452 1450 1434 1419 1429 1432 1439 1439 1446 1449 1453
1469 1469 1469 1469 1466 1469 1466 1466 1467 1466 1462 1460 1457 1455 1460 1455 1457 1454 1451 1462 1464 1464 1465 1464 1454 1452 1442 1437 1434 1437 1447 1456 1462 1466 1462 1461 1440 1427 1434 1436 1443 1446 1454 1452 1455
1466 1464 1463 1458 1459 1460 1461 1461 1458 1458 1459 1458 1453 1452 1450 1454 1460 1452 1451 1459 1467 1465 1464 1462 1459 1457 1455 1444 1442 1453 1453 1452 1459 1474 1457 1445 1437 1429 1431 1440 1447 1451 1450 1454 1458
1455 1454 1455 1454 1454 1453 1453 1453 1452 1451 1450 1452 1450 1452 1453 1452 1454 1451 1449 1449 1464 1460 1459 1459 1460 1455 1450 1447 1446 1443 1448 1446 1447 1453 1467 1456 1447 1437 1436 1433 1431 1434 1434 1439 1448
1449 1445 1448 1446 1445 1451 1452 1452 1448 1447 1449 1450 1450 1450 1452 1450 1449 1450 1454 1447 1454 1451 1450 1451 1452 1454 1452 1446 1445 1444 1440 1437 1439 1437 1435 1437 1431 1428 1429 1427 1429 1429 1427 1429 1436
1447 1447 1447 1440 1434 1436 1437 1438 1444 1446 1443 1446 1449 1457 1459 1460 1460 1462 1462 1462 1460 1456 1454 1449 1457 1453 1452 1447 1443 1447 1432 1434 1435 1432 1432 1436 1428 1426 1426 1425 1424 1423 1423 1424 1433